Tracking 25648 objects as of 17-May-2022
HD Live streaming from Space Station
objects crossing your sky now

COSMOS 2251 DEB

Track COSMOS 2251 DEB now!
10-day predictions


NORAD ID: 35831
Int'l Code: 1993-036ATD
Perigee: 705.7 km
Apogee: 755.5 km
Inclination: 74.0 °
Period: 99.3 minutes
Semi major axis: 7101 km
RCS: 0.007 m2 (small)
Launch date: June 16, 1993
Source: Commonwealth of Independent States (former USSR) (CIS)
Launch site: PLESETSK MISSILE AND SPACE COMPLEX (PKMTR)

Note: This is SATELLITE DEBRIS
aabbcc
Your satellite tracking list
Your tracking list is empty




NASA's NSSDC Master Catalog

Two Line Element Set (TLE):
1 35831U 93036ATD 22133.20111940  .00007792  00000-0  19732-2 0  9999
2 35831  74.0130  93.7136 0035091 114.4343 246.0485 14.50662736410794
Source of the keplerian elements: AFSPC